Regional Weather Roundup
Issued by NWS

Home | Current Version | Previous Version | Text Only | Print | Product List | Glossary On
Versions: 1 2 3 4 5 6 7 8 9 10 11 12 13 14 15 16 17 18 19 20 21 22 23 24 25 26 27 28 29 30 31 32 33 34 35 36 37 38 39 40 41 42 43 44 45 46 47 48 49 50
000
ASUS42 KTBW 111916
RWRFL
FLORIDA REGIONAL WEATHER ROUNDUP
NATIONAL WEATHER SERVICE TAMPA BAY RUSKIN FL
200 PM EST THU FEB 11 2016

NOTE: "FAIR" INDICATES FEW OR NO CLOUDS BELOW 12,000 FEET WITH NO
SIGNIFICANT WEATHER AND/OR OBSTRUCTIONS TO VISIBILITY.


FLZ001>010-012>015-112-114-115-112000-
PANHANDLE FLORIDA

CITY           SKY/WX    TMP DP  RH WIND       PRES   REMARKS
PENSACOLA      SUNNY     69  52  54 W21G26    30.16F
MILTON NAS     MOSUNNY   70  49  47 SW16      30.15
CRESTVIEW      SUNNY     70  47  43 SW14      30.17F
DUKE FIELD     MOSUNNY   69  49  48 SW14      30.14F
VALPARAISO     MOSUNNY   66  51  58 W20G25    30.17F
MARY ESTHER    SUNNY     66  52  59 SW17G24   30.17F
TRI COUNTY     FAIR      69  45  41 SW14G20   30.15F
PANAMA CITY    FAIR      67  48  50 SW18G25   30.18F
TYNDALL AFB    SUNNY     67  51  56 SW12      30.21F
APALACHICOLA   SUNNY     66  54  65 SW10      30.22F

STATION/POSITION SKY/WX   TEMP    WIND        PRES    WAVE   SWELL
                          AIR SEA DIR/SP/G            HT/PER HT/PER
                          (F)     (DEG/KT/KT) (MB)    (FT/S) (FT/S)
30.1N   87.6W              64 65  240/ 17/ 21 1021.5F   4/ 5
28.8N   86.0W              66 70  260/ 10/ 14 1024.4F   4/ 6   3/ 6
PANAMA CITY BEAC           61 57  230/ 12/ 13 1023.7F
CAPE SAN BLAS    NOT AVBL
TOWER C          NOT AVBL
28.5N   84.5W              64 67  230/  8/ 12 1024.5F   3/ 7   2/ 7

$$
FLZ011-016>038-118-127-128-134-139-239-112000-
NORTH FLORIDA

CITY           SKY/WX    TMP DP  RH WIND       PRES   REMARKS
MARIANNA       SUNNY     70  45  40 SW14      30.14F
TALLAHASSEE    MOSUNNY   71  41  33 SW13      30.18F
PERRY          SUNNY     64  48  55 S13       30.23F
LIVE OAK         N/A     72  45  37 W9        30.21F
CROSS CITY       N/A     67  46  47 W9        30.23F
LAKE CITY      FAIR      66  39  37 W10       30.20F
GAINESVILLE    SUNNY     66  41  40 W9G20     30.22F
WILLISTON      FAIR      70  43  37 W7        30.23F
KEYSTONE HEIGH FAIR      66  36  32 W9        30.21F
PALATKA        FAIR      64  36  34 W10G16    30.23F
MAYPORT NAS    SUNNY     63  35  35 SW9       30.21F
JACKSONVILLE   MOSUNNY   65  37  35 VRB7      30.19F
JAX NAS        SUNNY     65  35  33 VRB5      30.21F
JAX CRAIG      SUNNY     64  35  34 VRB7      30.21F
JAX CECIL      SUNNY     66  39  37 W6G12     30.21F
FERNANDINA BEA FAIR      66  32  28 W9        30.18F
ST AUGUSTINE   SUNNY     65  34  31 W9        30.22F
PALM COAST     SUNNY     63  32  31 W9        30.23F

STATION/POSITION SKY/WX   TEMP    WIND        PRES    WAVE   SWELL
                          AIR SEA DIR/SP/G            HT/PER HT/PER
                          (F)     (DEG/KT/KT) (MB)    (FT/S) (FT/S)
SHELL POINT                58     140/ 10/ 12 1022.6
KEATON BEACH               53     170/ 13/ 15 1023.7F
CEDAR KEY                  54     190/  8/  9 1024.9F
FERNANDINA                 59 54  230/  5/  9 1023.3F
30.7N   81.3W                 56                N/A     1/14   2/14
MAYPORT                    57 56  230/  9/ 11 1023.6F
31.4N   80.9W              50 53  180/  8/  8 1022.9F   1
ST AUGUSTINE               54 57  140/ 14/ 15 1023.9F

$$
FLZ040-043>046-052-053-057-058-063-144-112000-
INTERIOR CENTRAL FLORIDA

CITY           SKY/WX    TMP DP  RH WIND       PRES   REMARKS
OCALA          SUNNY     66  37  34 W8        30.24F
THE VILLAGES     N/A     68  36  30 SW8       30.15F
LEESBURG       SUNNY     63  31  30 SE5       30.26F
SANFORD        SUNNY     63  30  28 SE6       30.25F
ORLANDO EXEC   SUNNY     65  29  25 NW5       30.26F
ORLANDO INTL   SUNNY     65  28  24 NW6       30.26F
KISSIMMEE      SUNNY     64  30  27 N5        30.27F
WINTER HAVEN   SUNNY     66  33  29 CALM      30.28F
LAKELAND       SUNNY     64  36  34 CALM      30.28F
BARTOW         SUNNY     63  32  31 W8        30.28F
OKEECHOBEE     SUNNY     64  36  34 NE6       30.28F

$$
FLZ041-047-054-059-064-141-147-112000-
EAST CENTRAL FLORIDA

CITY           SKY/WX    TMP DP  RH WIND       PRES   REMARKS
ORMOND BEACH   SUNNY    N/A N/A N/A W6        30.24F
DAYTONA BEACH  MOSUNNY   65  33  30 NW3       30.24F
DELAND           N/A     63  30  29 NW6       30.25F
NEW SMYRNA BEA SUNNY     59  34  38 E9        30.25F
JFK SPACE CTR  SUNNY     62  31  30 E2        30.26F
TITUSVILLE     SUNNY     61  23  23 E6        30.28F
CAPE CANAVERAL SUNNY     62  34  35 NE8       30.26F
PATRICK AFB    SUNNY     60  34  37 E7        30.27F
MELBOURNE      SUNNY     61  31  32 E9        30.28F
VERO BEACH     SUNNY     63  29  27 NE10      30.29F
FT PIERCE      SUNNY     61  32  33 N10       30.28F

STATION/POSITION SKY/WX   TEMP    WIND        PRES    WAVE   SWELL
                          AIR SEA DIR/SP/G            HT/PER HT/PER
                          (F)     (DEG/KT/KT) (MB)    (FT/S) (FT/S)
28.5N   80.2W              58 73  360/  8/ 10 1025.6F
28.9N   78.5W              60 72              1025.1F
TRIDENT PIER               61 62   10/  6/  8 1025.5F
28.4N   80.5W                 63                N/A     2/14
27.5N   80.2W                 69                N/A     4/14   2/14

$$
FLZ050-056-061-142-242-148-248-149-249-151-251-155-255-
160-260-112000-
WEST CENTRAL FLORIDA

CITY           SKY/WX    TMP DP  RH WIND       PRES   REMARKS
CRYSTAL RIVER  FAIR      64  45  48 W6        30.25F
INVERNESS      FAIR      68  41  37 CALM      30.25F
BROOKSVILLE    SUNNY     66  41  40 VRB3      30.26F
ZEPHYRHILLS    FAIR      68  33  27 W6        30.26F
CLEARWATER AIR FAIR      63  46  55 W5        30.27F
ST PETE CLEARW SUNNY     64  45  49 NE6       30.27F
TAMPA INTL     SUNNY     63  44  50 SW9       30.28F
TAMPA EXEC     SUNNY     68  37  32 CALM      30.27F
PLANT CITY     SUNNY     68  41  37 W6        30.28F
MACDILL AFB    SUNNY     66  46  49 S6        30.27F
PETER O KNIGHT SUNNY     66  46  48 S6        30.28F
ST PETERSBURG  SUNNY     60  44  55 S8        30.26F
SARASOTA       SUNNY     64  46  52 W10       30.27F
VENICE         FAIR      61  48  63 W9        30.29F

STATION/POSITION SKY/WX   TEMP    WIND        PRES    WAVE   SWELL
                          AIR SEA DIR/SP/G            HT/PER HT/PER
                          (F)     (DEG/KT/KT) (MB)    (FT/S) (FT/S)
CEDAR KEY                  54     190/  8/  9 1024.9F
28.5N   84.5W              64 67  230/  8/ 12 1024.5F   3/ 7   2/ 7
27.3N   84.2W                 71                N/A     3/ 7
CLEARWATER BEACH           56 56  210/  8/  9 1025.9F
MIDDLE TAMPA BAY           56      CALM  /  2 1026.7F
VENICE                     59 61  270/  8/  9 1025.0F

$$
FLZ066-069-070-075>078-162-262-165-265-112000-
SOUTHWEST FLORIDA AND KEYS

CITY           SKY/WX    TMP DP  RH WIND       PRES   REMARKS
PUNTA GORDA    SUNNY     66  42  41 NE7       30.29F
FT MYERS       SUNNY     67  40  37 VRB3      30.27F
SOUTHWEST INTL SUNNY     68  37  32 N6        30.28F
NAPLES         SUNNY     68  37  32 NE9       30.27F
MARCO ISLAND   SUNNY     68  36  30 NE8       30.27F
MARATHON       PTSUNNY   62  42  47 N13       30.27F
KEY WEST NAS   PTSUNNY   63  41  44 NE15      30.27F
KEY WEST INTL  MOSUNNY   64  48  56 NE13      30.27F

STATION/POSITION SKY/WX   TEMP    WIND        PRES    WAVE   SWELL
                          AIR SEA DIR/SP/G            HT/PER HT/PER
                          (F)     (DEG/KT/KT) (MB)    (FT/S) (FT/S)
VENICE                     59 61  270/  8/  9 1025.0F
NAPLES                        63              1025.5F
26.0N   85.6W              66 79   50/  6/ 10 1025.9F   3/ 7   3/ 7
DRY TORTUGAS     NOT AVBL
SAND KEY                   59      40/ 16/ 18 1025.3F
LONG KEY                   59 63   20/ 11/ 13 1025.5F
MOLASSES REEF              60 74   30/ 12/ 14 1024.3F

$$
FLZ067-068-071>074-168-172>174-112000-
SOUTHEAST FLORIDA

CITY           SKY/WX    TMP DP  RH WIND       PRES   REMARKS
W PALM BEACH   PTSUNNY   67  33  28 NE12      30.28F
BOCA RATON     SUNNY    N/A N/A N/A N7        30.27F
FT LAUDER-EXEC MOSUNNY   66  23  19 N7        30.27F
FT LAUDERDALE  MOSUNNY   69  38  32 NE7G16    30.25F
POMPANO BEACH  PTSUNNY   66  26  22 N7        30.27F
PEMBROKE PINES SUNNY     70  31  23 N7        30.28F
OPA LOCKA      SUNNY     70  35  27 NW6       30.27F
MIAMI          MOSUNNY   67  34  29 NE7       30.26F
WEST KENDALL   SUNNY     66  33  29 NE8       30.27F
HOMESTEAD      SUNNY     66  37  33 N12       30.26F

STATION/POSITION SKY/WX   TEMP    WIND        PRES    WAVE   SWELL
                          AIR SEA DIR/SP/G            HT/PER HT/PER
                          (F)     (DEG/KT/KT) (MB)    (FT/S) (FT/S)
PORT EVERGLADES    C1F1M1C2F2M2C3F3C4F4M3C5F5M4C6F6M5C7F7M6C8!


USA.gov is the U.S. government's official web portal to all federal, state and local government web resources and services.